Location: York
(31.8935°S, 116.7682°E)
Time: 22:49:35
(UTC+08:00)

Envisat - Pass Details

Date: 17 May 2021
Orbit: 764 x 766 km, 98.1° (Epoch: 13 June)

Event Time Altitude Azimuth Distance (km) Brightness Sun altitude
Rises 19:03:49 0° 194° (SSW) 3,264 6.3 -21.4°
Reaches altitude 10° 19:07:43 10° 224° (SW) 2,327 5.9 -22.2°
Maximum altitude 19:09:31 12° 245° (WSW) 2,195 6.1 -22.6°
Drops below altitude 10° 19:11:19 10° 266° (W) 2,317 6.5 -22.9°
Sets 19:15:12 0° 296° (WNW) 3,232 7.5 -23.7°
